Content
SEND FEEDBACK

Daily
Averages
Monthly
Summary
United States of America

HAYLAND, NEBRASKA


Home > North America > United States > Nebraska
Elevation: 1817 feet     Latitude: 40 39N     Longitude: 098 04W

WEATHER
 
SELECT A DAY
Number of Records: 448,087;   Date Range: 10/21/96 - 12/18/14
 
SHARE

PRINT THIS DATA

[ ← Previous Day ]
WEATHER ALMANAC - JANUARY 31, 2013
[ Next Day → ]
[ °C ]   °F
Weather ElementAverageHighLow
Temperature14 °F21.6 °F (12:35 am)6.8 °F (8:55 pm)
Dewpoint3.8 °F15.1 °F (1:35 am)-1.7 °F (10:55 pm)
Humidity64.6 %83 % (1:55 am)47 % (4:15 pm)
Barometer30.18 in30.37 in (10:55 pm)29.90 in (12:35 am)
Wind Speed15.1 mph35.7 mph (10:15 am)
Wind Gust44.9 mph (10:15 am)
Weather ElementAverage
Visibility10 mi
Wind DirectionWSW (245.2 °)

Weather ElementTotal
Precipitation---
Heating Degree Days50.8 (Base 65)
Averaged from 69 records on January 31, 2013
WEATHER CONDITIONS BREAKOUT
WIND DIRECTION BREAKOUT
WEATHER BY HOUR - JANUARY 31, 2013
[ °C ]   °F
Local TimeTemperatureDewpointHumidityBarometerVisibilityWind DirectionWind SpeedGust SpeedPrecipitationEventsConditions
12:35 AM21.6 °F14.7 °F75 %29.90 in10.0 miNorth (10°)5.8 mphOvercast
12:55 AM21.0 °F14.0 °F74 %29.90 in10.0 miNNE (20°)8.1 mphOvercast
1:15 AM20.7 °F13.8 °F75 %29.92 in10.0 miNorth (10°)10.4 mphOvercast
1:35 AM20.3 °F15.1 °F80 %29.92 in10.0 miNNE (20°)10.4 mphOvercast
1:55 AM18.5 °F14.2 °F83 %29.92 in10.0 miNNE (20°)11.5 mphMostly Cloudy
2:15 AM18.5 °F13.8 °F82 %29.93 in10.0 miNorth (10°)10.4 mphOvercast
2:35 AM18.3 °F12.6 °F78 %29.92 in10.0 miNorth (10°)8.1 mphOvercast
2:55 AM18.1 °F12.7 °F79 %29.94 in10.0 miNorth (350°)10.4 mphOvercast
3:15 AM18.0 °F12.0 °F78 %29.96 in10.0 miNNW (340°)13.8 mphOvercast
3:35 AM16.9 °F10.9 °F77 %29.95 in10.0 miNorth (350°)15.0 mphOvercast
3:55 AM16.5 °F10.0 °F76 %29.96 in10.0 miNorth (360°)12.7 mphOvercast
4:15 AM15.8 °F9.1 °F75 %29.97 in10.0 miNorth (360°)15.0 mphOvercast
4:35 AM14.9 °F8.4 °F76 %29.98 in10.0 miNNW (340°)13.8 mphMostly Cloudy
4:55 AM14.7 °F8.4 °F76 %29.99 in10.0 miNNW (340°)16.1 mphMostly Cloudy
5:15 AM14.4 °F6.4 °F71 %29.99 in10.0 miNorth (350°)17.3 mphMostly Cloudy
5:35 AM14.2 °F7.3 °F74 %30.00 in10.0 miNorth (350°)15.0 mphOvercast
5:55 AM14.4 °F7.9 °F75 %30.01 in10.0 miNNW (340°)12.7 mphOvercast
6:15 AM14.7 °F7.7 °F74 %30.01 in10.0 miNNW (340°)16.1 mphOvercast
6:55 AM14.9 °F7.9 °F74 %30.05 in10.0 miNNW (340°)16.1 mphOvercast
7:15 AM14.9 °F7.5 °F73 %30.05 in10.0 miNNW (340°)18.4 mph23.0 mphOvercast
7:35 AM14.7 °F7.0 °F71 %30.07 in10.0 miNNW (340°)20.7 mph29.9 mphOvercast
7:55 AM14.2 °F7.0 °F73 %30.08 in10.0 miNorth (350°)20.7 mph28.8 mphOvercast
8:15 AM13.6 °F6.1 °F72 %30.10 in10.0 miNNW (340°)23.0 mph29.9 mphOvercast
8:35 AM12.7 °F4.1 °F68 %30.13 in10.0 miNNW (340°)27.6 mph33.4 mphOvercast
8:55 AM12.2 °F3.0 °F67 %30.14 in10.0 miNNW (340°)25.3 mph33.4 mphOvercast
9:15 AM12.6 °F3.2 °F66 %30.16 in10.0 miNNW (330°)26.5 mph31.1 mphOvercast
9:35 AM12.7 °F3.0 °F65 %30.17 in10.0 miNW (320°)23.0 mph29.9 mphOvercast
9:55 AM13.1 °F2.5 °F63 %30.20 in10.0 miNW (320°)26.5 mph34.5 mphMostly Cloudy
10:15 AM12.0 °F0.1 °F59 %30.22 in10.0 miNNW (330°)35.7 mph44.9 mphClear
10:35 AM12.7 °F1.4 °F61 %30.22 in10.0 miNNW (340°)29.9 mph41.4 mphClear
10:55 AM13.5 °F1.8 °F60 %30.24 in10.0 miNNW (330°)31.1 mph39.1 mphClear
11:15 AM13.8 °F0.9 °F56 %30.25 in10.0 miNW (320°)32.2 mph39.1 mphClear
11:35 AM14.2 °F1.8 °F58 %30.25 in10.0 miNW (320°)27.6 mph34.5 mphClear
11:55 AM14.2 °F1.9 °F58 %30.25 in10.0 miNNW (330°)25.3 mph33.4 mphClear
12:15 PM14.5 °F2.3 °F58 %30.25 in10.0 miNNW (340°)23.0 mph31.1 mphClear
12:35 PM14.9 °F2.3 °F57 %30.26 in10.0 miNNW (340°)24.2 mph32.2 mphClear
12:55 PM15.4 °F2.3 °F56 %30.26 in10.0 miNNW (330°)26.5 mph32.2 mphClear
1:15 PM16.2 °F2.5 °F55 %30.26 in10.0 miNW (320°)24.2 mphClear
1:35 PM15.8 °F1.8 °F54 %30.26 in10.0 miNW (320°)21.9 mph32.2 mphClear
1:55 PM16.2 °F1.4 °F52 %30.27 in10.0 miNNW (330°)24.2 mph31.1 mphClear
2:15 PM16.2 °F1.2 °F52 %30.26 in10.0 miNNW (330°)24.2 mph31.1 mphClear
2:35 PM15.8 °F0.5 °F51 %30.27 in10.0 miNNW (330°)21.9 mph29.9 mphClear
2:55 PM15.8 °F0.1 °F50 %30.27 in10.0 miNW (320°)24.2 mph28.8 mphClear
3:15 PM16.3 °F0.1 °F49 %30.27 in10.0 miNNW (330°)21.9 mph26.5 mphClear
3:35 PM15.8 °F-0.9 °F48 %30.27 in10.0 miNNW (340°)20.7 mph28.8 mphClear
3:55 PM16.3 °F0.1 °F49 %30.28 in10.0 miNNW (330°)21.9 mph27.6 mphClear
4:15 PM15.8 °F-1.3 °F47 %30.29 in10.0 miNW (320°)20.7 mphClear
4:35 PM15.6 °F-1.3 °F47 %30.30 in10.0 miNNW (340°)21.9 mphClear
4:55 PM15.4 °F-1.5 °F47 %30.30 in10.0 miNNW (330°)16.1 mphClear
5:15 PM14.9 °F-1.3 °F49 %30.29 in10.0 miNNW (340°)13.8 mphClear
5:35 PM14.0 °F-0.8 °F52 %30.29 in10.0 miNNW (340°)15.0 mphClear
5:55 PM13.5 °F-1.1 °F52 %30.29 in10.0 miNNW (340°)12.7 mphClear
6:15 PM12.2 °F-0.8 °F56 %30.30 in10.0 miNNW (330°)10.4 mphClear
6:35 PM11.8 °F0.1 °F59 %30.30 in10.0 miNNW (340°)8.1 mphClear
6:55 PM10.4 °F0.5 °F64 %30.31 in10.0 miCalmClear
7:15 PM9.5 °F-0.4 °F64 %30.32 in10.0 miCalmClear
7:35 PM9.3 °F0.7 °F68 %30.32 in10.0 miNorth (350°)3.5 mphClear
8:15 PM8.6 °F0.5 °F70 %30.33 in10.0 miCalmClear
8:35 PM8.8 °F0.1 °F68 %30.33 in10.0 miCalmClear
8:55 PM6.8 °F0.0 °F74 %30.34 in10.0 miNNW (340°)4.6 mphClear
9:15 PM8.8 °F-0.4 °F66 %30.35 in10.0 miCalmClear
9:35 PM7.2 °F-0.4 °F71 %30.35 in10.0 miNNW (340°)4.6 mphClear
9:55 PM8.1 °F-0.4 °F68 %30.35 in10.0 miCalmClear
10:15 PM8.6 °F0.0 °F68 %30.36 in10.0 miCalmMostly Cloudy
10:35 PM9.0 °F0.5 °F69 %30.36 in10.0 miCalmOvercast
10:55 PM9.5 °F-1.7 °F61 %30.37 in10.0 miCalmOvercast
11:15 PM9.9 °F-1.1 °F61 %30.35 in10.0 miCalmOvercast
11:35 PM10.0 °F-1.3 °F60 %30.34 in10.0 miCalmOvercast
11:55 PM10.0 °F-1.3 °F60 %30.34 in10.0 miCalmOvercast
Hourly data recorded from KAUH, located miles away from Hayland, Nebraska







STORIES FROM OUR PARTNERS